Location: *
(46.1833°N, 22.7667°E)
Time: 00:57:24
(UTC+00:00)

MetOp-B - Pass Details

Date: 17 September 2019
Orbit: 819 x 821 km, 98.7° (Epoch: 20 October)

Event Time Altitude Azimuth Distance (km) Brightness Sun altitude
Exits shadow 19:33:12 73° 264° (W) 861 4.2 -28.9°
Drops below altitude 10° 19:38:30 10° 342° (NNW) 2,427 7.3 -29.6°
Sets 19:40:53 0° 345° (NNW) 3,363 8.1 -29.9°
